Skip Navigation Links
NOAA logo - Click to go to the NOAA homepage
NOAA's National Weather Service
Alaska Aviation Weather Unit
  NWS logo - Click to go to the NWS homepage
Left Navbar Graphic     23 AKDT = 07 GMT

   
NOAA is celebrating 200 years of science, service, and stewardship. Visit the NOAA 200th celebration Web site to learn more.
USA.gov is the U.S. Government's official Web portal to all Federal, state and local government Web resources and services.
Facebook
NWS on Facebook

Important Change Regarding the AAWU Web Presence

 

Over the last several months, the AAWU has been working to navigate its webpages to a nationally supported server. Security, as well as other needs, have necessitated the change.  In the process, we have made an effort to enhance the functionality of our website, as well as some of our products. As of June 20, 2017, aawu.arh.noaa.gov will be discontinued. The new AAWU web address is weather.gov/aawu. It is now live and will run in-parallel with the old site until it is discontinued. Please send any feedback or questions regarding the new webpages to nws.ar.aawu.webauthors@noaa.gov.  Thank you for your patience during this time of transition.
AAWU Home :: Display TAF Add Bookmark
TAF PADQ 240521Z 2406/2506 17011KT P6SM -SHRA SCT025 OVC040
     FM240900 16011KT P6SM -RA SCT025 OVC035 WS020/23040KT
     FM242100 20015KT P6SM -SHRA SCT025 OVC035
     FM250000 25007KT P6SM SCT040=

METAR PADQ 240153Z AUTO 20008KT 10SM SCT034 OVC045 12/04 A3008= METAR PADQ 240253Z AUTO 21008KT 10SM FEW080 12/04 A3006= METAR PADQ 240353Z AUTO 19011KT 10SM FEW048 SCT075 SCT120 11/05 A3005= METAR PADQ 240453Z AUTO 18009KT 10SM FEW025 OVC090 11/06 A3004= METAR PADQ 240553Z AUTO 20011KT 10SM OVC085 10/05 A3003= METAR PADQ 240653Z AUTO 21012KT 10SM BKN090 09/05 A3004=
 Alaska TAF Map

NOAA's National Weather Service
Alaska Aviation Weather Unit
6930 Sand Lake Road
Anchorage, AK 99502-1845
Disclaimer
Credits
Glossary
Privacy Policy
About Us
Career Opportunities
Contact AAWU Internet Services Site last modified: April, 17th 2012